Location: Sternwarte auf dem Internationalen Platz Vogelsang IP
(50.5721°N, 6.4398°E)
Time: 12:44:16
(UTC+01:00)

STARLINK-35659 - Pass Details

Date: 11 November 2025
Orbit: 288 x 289 km, 53.2° (Epoch: 15 November)

Event Time Altitude Azimuth Distance (km) Brightness Sun altitude
Exits shadow 04:51:36 - 75° (ENE) 1,256 5.5 -27.1°
Enters shadow 05:44:41 -71° 253° (WSW) 12,320 9.5 -18.7°
Maximum altitude 06:21:56 48° 350° (N) 379 1.6 -12.9°
